宝马BMW_CAN数据表_更新时间:2018-05-29

2018-07-26 15:03:25 490
Manufacturer :
Year of production :
Engine type :
Country code :
Can mode :
OBD connection :
Vehicle speed :
Car speed id :
Turn signal :
Turn signal id :
Speed rpm :
Speed id :
Brake signal :
Brake signal id :
Headlamp signal :
Headlight id :
Creation date :
File version :
立即下载
NoManufacturerModelYearEngine TypeCountry CodeDateDetails
1BMW520d X-drive2010Diesel GG2014-10-20 20:11:18View Multi CAN File
2BMW520d X-drive2011Diesel GG2014-10-20 20:11:18View Multi CAN File
3BMWX52014Gasoline GG2015-05-06 14:12:14View Multi CAN File
4BMWX52007Gasoline GG2015-05-06 14:39:58View Multi CAN File
5BMWX52008Gasoline GG2015-05-06 14:39:58View Multi CAN File
6BMWX52009Gasoline GG2015-05-06 14:39:58View Multi CAN File
7BMWX52010Gasoline GG2015-05-06 14:39:58View Multi CAN File
8BMWX52011Gasoline GG2015-05-06 14:39:58View Multi CAN File
9BMWX52012Gasoline GG2015-05-06 14:39:58View Multi CAN File
10BMWX52013Gasoline GG2015-05-06 14:39:58View Multi CAN File
11BMW5series2009Gasoline GG2015-11-04 13:36:02View Multi CAN File
12BMW5series2012Gasoline GG2015-11-04 13:38:34View Multi CAN File
13BMW5series2015Gasoline GG2015-11-04 13:38:34View Multi CAN File
14BMWX62015Gasoline IL2017-04-05 14:44:05View Multi CAN File
15BMW218i2015Gasoline IL2017-04-05 15:02:39View Multi CAN File
16BMW3 series2017Gasoline IT2017-04-25 10:42:32View Multi CAN File
17BMW320d xDrive2016Gasoline IT2017-06-13 16:06:01View Multi CAN File
18BMW320d xDrive2017Gasoline IT2017-06-13 16:06:01View Multi CAN File
19BMW1 series2012Gasoline IL2017-06-09 17:51:04View Multi CAN File
20BMW118i2012Gasoline IL2017-06-13 14:16:39View Multi CAN File
21BMW5series2002Gasoline NL2017-07-12 10:43:53View Multi CAN File
22BMW1 series2016Gasoline IL2017-07-14 08:58:27View Multi CAN File
23BMW3 series2010Gasoline IL2017-08-31 20:30:54View Multi CAN File
24BMWX32013Diesel IL2017-10-18 09:05:12View Multi CAN File
25BMWX32011Diesel IL2017-10-18 17:33:28View Multi CAN File
26BMWX32012Diesel IL2017-10-18 17:33:28View Multi CAN File
27BMWX32013Diesel IL2017-10-18 17:33:28View Multi CAN File
28BMW1 series2017Gasoline IL2017-11-01 11:09:21View Multi CAN File
29BMWX12017Gasoline IL2018-01-11 23:15:03View Multi CAN File
30BMWX52017Gasoline IL2018-03-06 22:34:32View Multi CAN File
31BMW3 series2017Gasoline IL2018-03-15 18:52:31View Multi CAN File
32BMWX52010Diesel IL2018-05-16 18:01:50View Multi CAN File
33BMW5202017Gasoline MX2018-05-24 09:30:26View Multi CAN File
34BMWX52002Gasoline IL2018-05-29 14:53:31View Multi CAN File


电话咨询
邮件咨询
在线地图
QQ客服